User: anonymous   Login
Location: Betra
(48.4113°N, 8.6634°E)
Time: 19:13:36
(UTC+00:00)
Language:

COSMOS 2428 - Orbit

View from above orbital plane
View from above orbital plane
View from above satellite
View from above satellite

Ground track
Ground track

The orbit data is extracted from the following two-line orbital elements,

1 31792U 07029A   24206.86841028 -.00000066  00000-0 -98471-5 0  9999
2 31792  70.9380   7.6987 0009987 347.0041  13.0821 14.12705257880364
Epoch (UTC): 24 July 2024 20:50:30
Eccentricity: 0.0009987
inclination: 70.9380°
perigee height: 843 km
apogee height: 857 km
right ascension of ascending node: 7.6987°
argument of perigee: 347.0041°
revolutions per day: 14.12705257
mean anomaly at epoch: 13.0821°
orbit number at epoch: 88036

The dashed part of the orbit path shows where the satellite is in the earth's shadow,  

DLR